Location: Arrodets-la-Barthe
(43.0306°N, 0.2829°E)
Time: 13:12:34
(UTC+00:00)

ESTCUBE 1 - Pass Details

Date: 04 April 2023
Orbit: 640 x 654 km, 97.9° (Epoch: 29 May)

Event Time Altitude Azimuth Distance (km) Brightness Sun altitude
Exits shadow 22:12:59 23° 334° (NNW) 1,407 ? -35.2°
Drops below altitude 10° 22:14:42 10° 341° (NNW) 2,074 ? -35.4°
Sets 22:16:57 0° 344° (NNW) 2,989 ? -35.6°
